Simultaneous Nadir Overpasses (SNOs) Predictions

Prediction of SNOs between AQUA and METOP-A Satellite Orbit:

Table of predicted SNOs for the next 14.0 days since TLE Epoch: 9/21/2013
Index Date (AQUA) Time (AQUA) Lat,Lon (AQUA) SZA (AQUA ) Date (METOP-A) Time (METOP-A) Lat,Lon (METOP-A) SZA (METOP-A ) Distance(km) Time Diff (sec)
1 09/22/2013 15:12:30 -73.82, 126.13 106.33 09/22/2013 15:11:58 -73.83, 126.06 106.31 2.21 32
2 09/22/2013 16:01:59 73.90, -66.42 73.78 09/22/2013 16:02:37 73.89, -66.46 73.77 1.75 38
3 09/25/2013 10:46:47 -73.86,-167.52 105.20 09/25/2013 10:46:21 -73.86,-167.45 105.19 2.36 26
4 09/25/2013 11:36:15 73.89, 0.04 74.86 09/25/2013 11:37:00 73.92, 0.03 74.89 3.61 45
5 09/28/2013 05:31:23 73.18, 92.72 75.18 09/28/2013 05:30:17 73.12, 89.93 75.19 89.99 66
6 09/28/2013 06:21:02 -73.87,-101.11 104.09 09/28/2013 06:20:44 -73.85,-101.09 104.11 2.24 18
7 09/28/2013 07:10:30 73.90, 66.45 75.96 09/28/2013 07:11:23 73.90, 66.38 75.96 2.11 53
8 10/01/2013 01:05:44 73.47, 158.54 76.58 10/01/2013 01:04:34 73.45, 157.06 76.59 46.81 70
9 10/01/2013 01:55:17 -73.85, -34.63 103.03 10/01/2013 01:55:07 -73.88, -34.61 102.99 3.52 10
10 10/01/2013 02:44:46 73.94, 132.80 77.09 10/01/2013 02:45:46 73.93, 132.84 77.07 1.66 60
11 10/03/2013 20:40:04 73.74,-135.60 77.94 10/03/2013 20:38:52 73.72,-135.91 77.93 9.89 72
12 10/03/2013 21:29:32 -73.85, 31.80 101.94 10/03/2013 21:29:31 -73.86, 31.74 101.93 2.12 1




NCC Satellite Simultaneous Nadir Overpasses (SNOs) Prediction Service
